Tracking 17884 objects as of 6-December-2016
HD Live streaming from Space Station
objects crossing your sky now

DELTA 1 DEB

Track DELTA 1 DEB now!
10-day predictions


NORAD ID: 15205
Int'l Code: 1984-088E
Perigee: 27,730.0 km
Apogee: 44,010.3 km
Inclination: 28.7 °
Period: 1,440.0 minutes
Semi major axis: 42241 km
RCS: 0.0578 m2 (small)
Launch date: August 16, 1984
Source: United States (US)
Launch site: AIR FORCE EASTERN TEST RANGE (AFETR)

Note: This is SATELLITE DEBRIS
Your satellite tracking list
Your tracking list is empty





NASA's NSSDC Master Catalog

Two Line Element Set (TLE):
1 15205U 84088E   16340.72252502 -.00000003  00000-0 -42460-4 0  9995
2 15205  28.7310 205.1567 1927067 308.3878  76.6719 10.92729691856664
Source of the keplerian elements: AFSPC